Regional Weather Roundup
Issued by NWS

Home | Current Version | Previous Version | Graphics & Text | Print | Product List | Glossary On
Versions: 1 2 3 4 5 6 7 8 9 10 11 12 13 14 15 16 17 18 19 20 21 22 23 24 25 26 27 28 29 30 31 32 33 34 35 36 37 38 39 40 41 42 43 44 45 46 47 48 49 50
305
ASUS44 KJAN 262110
RWRMS

MISSISSIPPI HOURLY WEATHER ROUNDUP
NATIONAL WEATHER SERVICE JACKSON MS
300 PM CST MON JAN 26 2015

NOTE: "FAIR: INDICATES FEW OR NO CLOUDS BELOW 12,000 FEET WITH NO
SIGNIFICANT WEATHER AND/OR OBSTRUCTIONS TO VISIBILITY.

MSZ001>002-007>008-010>013-018>021-025>028-034>036-262200-
NORTHWEST MISSISSIPPI

CITY           SKY/WX    TMP DP  RH WIND       PRES   REMARKS
CLARKSDALE     FAIR      50  36  57 S6        30.04F
CLEVELAND      FAIR      51  38  61 W8        30.05F
GREENWOOD      SUNNY     49  34  56 VRB7      30.07F
GREENVILLE     SUNNY     53  34  48 SW9       30.06F
GRENADA        FAIR      48  32  53 W5        30.05F
OLIVE BRANCH   MOSUNNY   45  32  61 SW10      30.02F
OXFORD         FAIR      46  28  49 SW7       30.04F
TUNICA         CLEAR     50  34  53 SW9       30.03F
$$

MSZ003>006-009-014>017-022>024-029>033-037>039-262200-
NORTHEAST MISSISSIPPI

CITY           SKY/WX    TMP DP  RH WIND       PRES   REMARKS
COLUMBUS AFB   SUNNY     50  30  46 NW10      30.03F
CORINTH        FAIR      46  30  53 W8G15     29.99S
STARKVILLE     FAIR      50  32  50 NW5       30.04S
TUPELO         SUNNY     50  30  46 NW8       30.01F
$$

MSZ040-058-262200-
CENTRAL MISSISSIPPI

CITY           SKY/WX    TMP DP  RH WIND       PRES   REMARKS
JACKSON INTL   SUNNY     55  31  39 W7        30.06F
JACKSON HAWKNS SUNNY     54  32  43 NW8       30.07F
MERIDIAN KEY   SUNNY     53  30  41 NW8       30.04F
MERIDIAN NAS   SUNNY     52  30  43 VRB7      30.04F
RAYMOND        FAIR      55  50  82 NW8       30.07S
VICKSBURG      SUNNY     55  36  48 NW6       30.09F
$$

MSZ059>079-262200-
SOUTH MISSISSIPPI

CITY           SKY/WX    TMP DP  RH WIND       PRES   REMARKS
BROOKHAVEN     FAIR      55  34  44 NW9       30.08S
HATTIESBURG    SUNNY     59  31  34 N12       30.05S
MCCOMB         SUNNY     59  32  36 NW13      30.06F
NATCHEZ        SUNNY     55  36  47 NW9       30.09F
PINE BELT      SUNNY     57  30  35 N14       30.05F
$$

MSZ080>082-262200-
COASTAL MISSISSIPPI

CITY           SKY/WX    TMP DP  RH WIND       PRES   REMARKS
BAY ST LOUIS   SUNNY     61  25  25 N12       30.03S
BILOXI         SUNNY     61  34  35 N13G21    30.00F
PASCAGOULA     SUNNY     60  33  36 N13G23    30.01S
GULFPORT       SUNNY     61  32  33 NW13G24   30.01S
$$



USA.gov is the U.S. government's official web portal to all federal, state and local government web resources and services.